Back to catalog

FENGYUN 1C DEB

AlivePO
NORAD 37717·DEBRIS·🇨🇳 China

Launched May 10, 1999 from Taiyuan Satellite Launch Center

Loading…

Next Passes (next 24 hours)

TLE

FreshSource: Space-Track

Epoch: Sep 13, 2026, 05:41 UTC

1 37717U 99025EMJ 26256.23684294  .00028381  00000-0  15434-2 0  9990
2 37717  98.7478 252.7472 0034477 281.6415 141.8328 15.13925908935255

Track FENGYUN 1C DEB in real time with AllMySat

Download on the App Store